SCP
0 0 0 0 0 0 0 0 3 4 5 6 5 3 3 2 2 1 1 1 1 0 0 0 0 0 0 0 0 0 0 0 0 0 0 0 0 0 0 0 0 0 0
0 0 0 0 0 0 0 0 1 3 5 6 5 5 3 3 2 1 1 1 0 0 0 0 0 0 0 0 0 0 0 0 0 0 0 0 0 0 0 0 0 0 0
0 0 0 0 0 0 0 0 1 4 5 5 6 2 0 0 1 0 1 1 0 0 0 0 0 0 0 0 0 0 0 0 0 0 0 0 0 0 0 0 0 0 0
0 0 0 0 0 0 0 0 0 3 4 5 5 3 3 2 1 1 1 0 0 0 0 0 0 0 0 0 0 0 0 0 0 0 0 0 0 0 0 0 0 0 0
0 0 0 0 0 0 0 0 0 2 2 3 4 4 3 2 1 1 0 1 0 0 0 0 0 0 0 0 0 0 0 0 0 0 0 0 0 0 0 0 0 0 0
0 0 0 0 0 0 0 0 0 2 2 3 3 3 2 1 0 0 0 0 0 0 0 0 0 0 0 0 0 0 0 0 0 0 0 0 0 0 0 0 0 0 0
0 0 0 -0 0 0 0 0 0 1 2 2 2 2 1 1 0 0 0 0 0 0 0 0 0 0 0 0 0 0 0 0 0 0 0 0 0 0 0 0 0 0 0
0 0 0 -0 -0 0 0 0 0 1 2 2 2 1 0 1 0 0 0 0 0 0 0 0 0 0 0 0 0 0 0 0 0 0 0 0 0 0 0 0 0 0 0
0 0 0 0 0 0 0 0 0 1 2 2 1 0 0 0 0 0 0 0 0 0 0 0 0 0 0 0 0 0 0 0 0 0 0 0 0 0 0 0 0 0 0
0 0 0 0 0 0 0 0 0 0 1 1 1 0 0 0 0 0 0 0 0 0 0 0 0 0 0 0 0 0 0 0 0 0 0 0 0 0 0 0 0 0 0
-0 0 0 0 0 0 0 0 0 0 0 0 0 0 0 0 0 0 0 0 0 0 0 0 0 0 0 0 0 0 0 0 0 0 0 0 0 0 0 0 0 0 0
0 0 0 0 0 0 0 0 0 0 0 0 0 0 0 0 0 0 0 0 0 0 0 0 0 0 0 0 0 0 0 0 0 -0 0 0 0 0 0 0 0 0 0
-0 0 -0 0 0 0 0 0 0 0 0 0 0 0 0 0 0 0 0 0 0 0 0 0 0 0 0 0 0 0 0 0 0 0 0 0 0 0 0 0 0 0 0
-0 0 0 0 0 0 0 0 0 0 0 0 0 0 0 0 0 0 0 0 0 0 0 0 0 0 0 0 0 0 0 0 0 0 0 0 0 0 0 0 0 0 0
-0 -0 -0 0 0 0 0 0 0 0 0 0 0 0 0 0 0 0 0 0 0 0 0 0 0 0 0 0 0 0 0 0 0 0 0 0 0 0 0 0 0 0 0
-0 -0 -0 -0 0 0 0 0 0 0 0 0 0 0 0 0 0 0 0 0 0 0 0 0 0 0 0 0 0 0 0 0 0 0 0 -0 0 0 0 -0 0 0 0
-0 -0 -0 -0 -0 0 0 0 0 0 0 0 0 0 0 0 0 0 0 0 0 0 0 0 0 0 0 0 0 0 0 0 0 0 0 0 0 0 0 0 0 0 0
-0 -0 -0 -0 -0 -0 0 0 0 0 0 0 0 0 0 0 0 0 0 0 0 0 0 0 0 0 0 0 0 0 0 0 0 0 0 0 0 0 0 0 0 0 0
-0 -0 0 0 0 0 0 0 0 0 0 0 0 0 0 0 0 0 0 0 0 0 0 0 0 0 0 0 0 0 0 0 0 0 0 0 0 0 0 0 0 0 0
0 -0 0 0 0 0 0 0 0 0 0 0 0 0 0 0 0 0 0 0 0 0 0 0 0 0 0 0 0 0 0 0 0 0 0 0 0 0 0 0 0 0 0
-0 -0 0 0 0 0 0 0 0 0 0 0 0 0 0 0 0 0 0 0 0 0 0 0 0 0 0 0 0 0 0 0 0 0 0 0 0 0 0 0 0 0 0
-0 -0 0 0 0 0 0 0 0 0 0 0 0 0 0 0 0 0 0 0 0 0 0 0 0 0 0 0 0 0 0 0 0 0 0 0 0 0 0 0 0 0 0
0 0 0 0 0 0 0 0 0 0 0 0 0 0 0 0 0 0 0 0 0 0 0 0 0 0 0 0 0 0 0 0 0 0 0 0 0 0 0 0 0 0 0
0 0 0 0 0 0 0 0 0 0 0 0 0 0 0 0 0 0 0 0 0 0 0 0 0 0 0 0 0 0 0 0 0 0 0 0 0 0 0 0 0 0 0
0 0 0 0 0 0 0 0 0 0 0 -0 0 0 0 0 0 0 0 0 0 0 0 0 0 0 0 0 0 0 0 0 0 0 0 0 0 0 0 0 0 0 0
0 0 0 0 0 0 0 0 0 0 -0 0 0 0 0 0 0 0 0 0 0 0 0 0 0 0 0 0 0 0 0 0 0 0 0 0 0 0 0 0 0 0 0
Wind_Speed_500mb
72 80 80 70 71 61 60 54 55 74 88 89 87 83 80 79 72 70 70 62 58 55 54 53 52 52 55 57 52 52 54 57 57 58 57 54 55 57 67 73 68 63 54
78 75 73 73 74 73 68 62 55 59 82 92 84 90 84 84 75 70 70 64 61 60 60 59 57 57 56 57 54 53 52 53 59 63 54 38 48 72 74 75 75 64 53
34 33 37 47 59 61 65 70 60 62 64 90 90 95 90 87 80 73 70 78 69 65 66 60 59 59 58 58 57 53 52 56 63 66 44 17 22 45 54 74 75 67 56
38 42 38 27 27 39 41 50 61 60 60 85 96 96 89 95 85 72 86 84 71 69 67 60 61 58 58 56 54 50 52 56 64 67 72 50 30 29 29 59 70 63 57
40 45 55 47 39 27 33 45 59 60 63 77 99 100 98 97 87 90 88 76 72 69 64 57 58 55 55 53 50 47 53 60 64 64 69 73 54 46 40 42 67 65 57
44 40 42 53 43 31 28 28 42 53 64 73 92 109 98 99 94 89 80 80 75 69 59 59 59 59 56 57 50 50 55 59 62 67 65 72 75 67 56 62 66 66 61
49 53 42 54 46 43 36 20 41 54 64 62 86 105 98 100 97 87 77 77 75 67 60 63 59 59 58 56 48 51 55 61 63 66 71 68 77 78 81 69 74 66 55
59 56 38 50 43 42 40 22 31 45 63 65 80 92 92 86 86 75 65 70 71 63 53 54 55 51 52 52 50 53 56 62 70 72 72 72 73 77 80 86 72 49 52
63 57 48 41 36 38 32 18 19 44 53 55 68 73 75 72 71 66 59 58 59 56 47 44 40 42 43 51 56 60 63 59 62 66 68 77 70 89 85 82 67 60 50
55 60 51 45 37 37 33 20 12 23 37 51 54 52 54 62 57 54 51 53 53 45 41 42 45 46 47 56 56 55 58 62 62 70 72 98 76 93 90 84 76 70 63
45 57 51 45 39 36 33 31 12 23 31 32 50 51 49 52 49 48 43 49 45 42 41 43 43 41 43 48 44 42 51 58 73 73 69 90 77 95 95 82 78 75 63
45 52 51 50 45 40 36 34 24 4 9 16 25 37 58 35 51 43 38 44 43 37 36 40 40 36 36 37 34 29 31 38 48 50 54 73 100 96 106 94 86 78 66
44 55 57 56 54 47 40 31 27 21 5 7 19 32 53 71 71 44 40 44 37 31 26 28 27 26 28 27 26 25 28 36 40 43 42 77 85 82 89 84 86 81 68
44 56 63 59 53 49 44 37 23 14 8 3 16 25 21 27 46 46 43 34 31 31 28 26 25 23 20 15 12 15 20 26 26 26 30 58 70 74 81 87 84 74 65
47 52 59 59 56 53 49 42 31 15 7 14 28 38 43 44 53 43 42 38 37 35 31 25 22 23 22 17 16 15 17 24 24 19 29 33 64 64 88 88 83 70 64
42 47 55 58 59 56 52 46 41 33 16 15 30 40 52 57 52 48 45 42 32 44 28 27 27 25 23 17 17 18 19 19 15 13 25 46 60 66 55 53 58 54 60
39 48 52 55 55 50 46 47 45 39 34 21 17 28 48 54 47 47 47 44 41 36 34 34 32 27 25 19 18 19 19 24 28 22 22 28 37 47 58 59 52 54 64
41 45 48 51 54 50 48 43 44 44 45 42 41 31 16 43 48 50 49 46 45 46 44 40 33 30 26 23 23 25 25 24 25 26 25 25 30 34 38 44 55 50 49
34 38 38 42 46 53 58 58 61 54 54 53 49 47 37 27 24 42 41 41 44 45 41 37 39 32 29 30 29 31 31 29 27 26 26 25 26 32 36 36 42 45 44
33 33 36 40 45 49 52 61 68 69 68 57 49 47 49 42 36 30 26 19 25 33 34 23 32 25 21 26 25 29 34 36 32 26 23 26 24 25 26 27 26 28 24
37 38 42 49 47 45 47 59 60 66 57 56 55 51 45 44 42 35 32 33 29 27 26 22 33 32 27 21 12 13 20 24 29 28 26 24 20 24 22 20 24 20 24
33 39 45 50 51 48 48 54 59 48 45 46 50 51 48 50 44 40 41 39 41 42 41 40 41 43 42 38 34 27 23 23 21 31 32 29 22 21 19 19 24 25 23
31 33 37 41 45 50 55 56 49 42 43 46 48 48 44 47 45 44 46 48 49 47 51 52 51 49 47 43 38 36 30 31 37 39 35 29 24 22 21 20 22 22 21
29 30 33 39 42 43 47 51 46 43 43 46 47 45 44 41 38 41 44 45 44 44 44 45 46 43 42 40 35 32 28 26 27 29 25 22 22 20 20 21 20 19 16
30 32 37 39 41 38 41 40 39 38 41 41 42 42 39 36 34 35 36 36 38 33 33 35 32 31 32 29 25 23 22 21 19 15 16 16 15 13 13 12 13 13 11
28 31 33 33 36 35 36 36 36 34 33 35 38 39 37 34 32 30 30 29 27 25 26 26 21 22 23 19 16 14 14 15 15 9 12 17 18 17 16 13 11 9 7
Wind_Direction_500mb
299 287 285 285 276 278 275 269 250 241 231 228 224 227 228 233 230 228 225 222 225 228 227 230 227 227 230 231 231 230 234 235 230 220 222 223 237 247 240 225 222 216 211
302 297 294 286 286 278 270 267 260 249 237 230 228 226 225 230 230 228 229 225 228 230 229 228 226 227 227 230 231 226 219 220 216 214 218 227 248 242 242 222 216 210 210
323 312 294 283 272 270 262 262 259 252 239 235 227 226 223 223 222 225 228 232 228 228 229 225 226 226 229 230 229 227 223 217 218 218 211 196 219 213 217 218 213 202 210
358 351 346 332 285 259 248 250 255 246 246 233 226 224 220 221 225 226 232 227 227 223 227 222 221 223 225 228 230 230 230 224 222 219 221 225 224 193 195 209 202 202 209
342 349 350 346 331 303 266 246 243 238 239 233 230 228 222 222 224 223 231 227 223 220 222 219 219 219 223 226 225 228 229 231 232 230 223 222 228 232 198 185 196 207 206
346 341 343 338 326 332 296 250 236 235 230 232 232 226 224 221 220 224 227 226 219 220 217 217 219 220 222 224 224 233 237 237 237 240 237 232 224 219 203 189 199 206 207
354 353 338 340 335 330 318 258 217 224 226 227 231 225 225 224 221 225 222 226 216 218 220 218 217 219 220 225 229 239 245 245 246 243 246 239 233 233 223 204 194 206 214
359 350 353 343 353 337 324 302 218 218 224 225 227 226 230 228 225 226 226 229 218 220 223 218 219 223 215 225 233 244 250 258 256 253 247 244 234 223 214 206 194 204 218
354 347 2 350 355 348 349 330 229 211 225 228 229 231 232 228 222 223 228 221 217 219 215 213 212 213 214 231 232 239 245 253 252 253 253 237 237 225 215 208 210 206 203
350 351 356 359 2 0 358 28 141 173 218 225 223 230 226 226 226 231 222 212 214 207 208 205 209 220 224 229 236 237 244 249 252 250 252 236 235 225 213 216 226 214 223
351 351 358 2 2 6 11 24 91 166 171 196 222 215 228 232 238 228 210 208 200 204 209 214 215 232 233 230 234 245 254 253 250 248 236 232 236 224 215 222 218 217 220
354 355 4 7 8 15 17 15 40 65 173 172 188 218 225 230 228 207 215 203 199 205 214 222 225 220 228 239 244 257 255 258 254 264 265 248 225 224 224 218 215 212 218
360 3 12 15 12 14 20 19 15 42 25 207 209 222 229 246 211 194 199 196 199 210 208 188 209 232 239 239 246 253 259 254 259 256 257 217 213 218 218 208 208 211 211
5 8 15 17 16 16 22 24 27 14 62 220 197 221 209 204 180 181 188 189 190 191 182 193 216 238 225 229 229 237 259 258 270 262 261 231 223 223 221 206 198 200 203
9 9 12 17 18 22 24 28 31 25 54 165 181 190 212 210 180 178 181 188 187 191 190 198 216 235 226 219 233 232 253 266 274 275 243 233 209 222 211 199 190 197 201
9 10 18 20 22 25 25 28 35 36 31 131 152 155 163 171 175 179 180 185 192 187 194 201 211 228 231 231 235 235 240 230 228 235 231 215 200 191 180 180 189 203 216
12 18 25 27 25 28 32 36 42 47 47 49 65 142 152 158 174 176 180 184 191 201 205 206 208 221 230 231 230 233 242 240 237 226 205 202 193 195 204 212 212 225 220
26 29 29 36 38 39 45 51 58 57 60 57 53 44 75 128 156 166 171 178 189 185 186 192 206 206 214 226 235 235 236 235 230 223 218 212 212 211 213 218 218 219 220
37 40 37 40 45 49 53 55 60 61 64 65 64 60 53 47 85 139 149 157 165 168 168 174 187 199 213 212 223 228 227 226 219 209 209 208 207 208 208 212 223 228 227
46 47 50 49 50 49 51 55 55 56 56 55 63 76 78 73 65 65 83 101 138 144 148 125 150 162 180 199 206 216 215 209 205 196 193 197 201 209 206 210 206 203 186
57 58 58 55 50 52 53 57 57 57 58 59 59 59 63 77 82 92 93 96 90 85 82 81 89 106 104 102 130 159 183 177 172 169 153 147 155 153 156 162 161 161 154
60 58 59 60 60 57 58 59 56 55 57 61 65 67 69 70 77 80 84 87 90 94 96 93 88 84 83 87 93 99 111 117 133 123 117 110 113 116 111 114 112 117 127
69 65 64 63 59 59 60 62 60 58 60 63 67 68 69 72 75 76 79 83 84 87 89 90 90 90 91 89 84 85 91 104 106 107 105 103 99 95 107 103 101 94 99
77 74 70 65 62 58 59 63 62 61 62 65 66 67 68 73 78 80 80 79 80 84 87 90 89 88 85 85 85 84 85 82 91 99 102 107 113 115 107 110 119 127 125
84 77 71 68 65 61 61 59 56 55 60 64 67 68 69 70 74 77 77 76 80 76 80 83 83 83 80 75 74 76 82 82 83 92 103 108 110 111 112 117 114 116 121
82 77 73 70 67 62 62 61 58 53 55 58 58 58 58 59 62 71 80 88 90 91 87 84 74 87 85 78 62 58 64 72 80 91 111 115 113 114 116 121 122 124 124
Wind_Speed_850mb
72 80 80 70 71 61 60 54 55 74 88 89 87 83 80 79 72 70 70 62 58 55 54 53 52 52 55 57 52 52 54 57 57 58 57 54 55 57 67 73 68 63 54
78 75 73 73 74 73 68 62 55 59 82 92 84 90 84 84 75 70 70 64 61 60 60 59 57 57 56 57 54 53 52 53 59 63 54 38 48 72 74 75 75 64 53
34 33 37 47 59 61 65 70 60 62 64 90 90 95 90 87 80 73 70 78 69 65 66 60 59 59 58 58 57 53 52 56 63 66 44 17 22 45 54 74 75 67 56
38 42 38 27 27 39 41 50 61 60 60 85 96 96 89 95 85 72 86 84 71 69 67 60 61 58 58 56 54 50 52 56 64 67 72 50 30 29 29 59 70 63 57
40 45 55 47 39 27 33 45 59 60 63 77 99 100 98 97 87 90 88 76 72 69 64 57 58 55 55 53 50 47 53 60 64 64 69 73 54 46 40 42 67 65 57
44 40 42 53 43 31 28 28 42 53 64 73 92 109 98 99 94 89 80 80 75 69 59 59 59 59 56 57 50 50 55 59 62 67 65 72 75 67 56 62 66 66 61
49 53 42 54 46 43 36 20 41 54 64 62 86 105 98 100 97 87 77 77 75 67 60 63 59 59 58 56 48 51 55 61 63 66 71 68 77 78 81 69 74 66 55
59 56 38 50 43 42 40 22 31 45 63 65 80 92 92 86 86 75 65 70 71 63 53 54 55 51 52 52 50 53 56 62 70 72 72 72 73 77 80 86 72 49 52
63 57 48 41 36 38 32 18 19 44 53 55 68 73 75 72 71 66 59 58 59 56 47 44 40 42 43 51 56 60 63 59 62 66 68 77 70 89 85 82 67 60 50
55 60 51 45 37 37 33 20 12 23 37 51 54 52 54 62 57 54 51 53 53 45 41 42 45 46 47 56 56 55 58 62 62 70 72 98 76 93 90 84 76 70 63
45 57 51 45 39 36 33 31 12 23 31 32 50 51 49 52 49 48 43 49 45 42 41 43 43 41 43 48 44 42 51 58 73 73 69 90 77 95 95 82 78 75 63
45 52 51 50 45 40 36 34 24 4 9 16 25 37 58 35 51 43 38 44 43 37 36 40 40 36 36 37 34 29 31 38 48 50 54 73 100 96 106 94 86 78 66
44 55 57 56 54 47 40 31 27 21 5 7 19 32 53 71 71 44 40 44 37 31 26 28 27 26 28 27 26 25 28 36 40 43 42 77 85 82 89 84 86 81 68
44 56 63 59 53 49 44 37 23 14 8 3 16 25 21 27 46 46 43 34 31 31 28 26 25 23 20 15 12 15 20 26 26 26 30 58 70 74 81 87 84 74 65
47 52 59 59 56 53 49 42 31 15 7 14 28 38 43 44 53 43 42 38 37 35 31 25 22 23 22 17 16 15 17 24 24 19 29 33 64 64 88 88 83 70 64
42 47 55 58 59 56 52 46 41 33 16 15 30 40 52 57 52 48 45 42 32 44 28 27 27 25 23 17 17 18 19 19 15 13 25 46 60 66 55 53 58 54 60
39 48 52 55 55 50 46 47 45 39 34 21 17 28 48 54 47 47 47 44 41 36 34 34 32 27 25 19 18 19 19 24 28 22 22 28 37 47 58 59 52 54 64
41 45 48 51 54 50 48 43 44 44 45 42 41 31 16 43 48 50 49 46 45 46 44 40 33 30 26 23 23 25 25 24 25 26 25 25 30 34 38 44 55 50 49
34 38 38 42 46 53 58 58 61 54 54 53 49 47 37 27 24 42 41 41 44 45 41 37 39 32 29 30 29 31 31 29 27 26 26 25 26 32 36 36 42 45 44
33 33 36 40 45 49 52 61 68 69 68 57 49 47 49 42 36 30 26 19 25 33 34 23 32 25 21 26 25 29 34 36 32 26 23 26 24 25 26 27 26 28 24
37 38 42 49 47 45 47 59 60 66 57 56 55 51 45 44 42 35 32 33 29 27 26 22 33 32 27 21 12 13 20 24 29 28 26 24 20 24 22 20 24 20 24
33 39 45 50 51 48 48 54 59 48 45 46 50 51 48 50 44 40 41 39 41 42 41 40 41 43 42 38 34 27 23 23 21 31 32 29 22 21 19 19 24 25 23
31 33 37 41 45 50 55 56 49 42 43 46 48 48 44 47 45 44 46 48 49 47 51 52 51 49 47 43 38 36 30 31 37 39 35 29 24 22 21 20 22 22 21
29 30 33 39 42 43 47 51 46 43 43 46 47 45 44 41 38 41 44 45 44 44 44 45 46 43 42 40 35 32 28 26 27 29 25 22 22 20 20 21 20 19 16
30 32 37 39 41 38 41 40 39 38 41 41 42 42 39 36 34 35 36 36 38 33 33 35 32 31 32 29 25 23 22 21 19 15 16 16 15 13 13 12 13 13 11
28 31 33 33 36 35 36 36 36 34 33 35 38 39 37 34 32 30 30 29 27 25 26 26 21 22 23 19 16 14 14 15 15 9 12 17 18 17 16 13 11 9 7
Wind_Direction_850mb
299 287 285 285 276 278 275 269 250 241 231 228 224 227 228 233 230 228 225 222 225 228 227 230 227 227 230 231 231 230 234 235 230 220 222 223 237 247 240 225 222 216 211
302 297 294 286 286 278 270 267 260 249 237 230 228 226 225 230 230 228 229 225 228 230 229 228 226 227 227 230 231 226 219 220 216 214 218 227 248 242 242 222 216 210 210
323 312 294 283 272 270 262 262 259 252 239 235 227 226 223 223 222 225 228 232 228 228 229 225 226 226 229 230 229 227 223 217 218 218 211 196 219 213 217 218 213 202 210
358 351 346 332 285 259 248 250 255 246 246 233 226 224 220 221 225 226 232 227 227 223 227 222 221 223 225 228 230 230 230 224 222 219 221 225 224 193 195 209 202 202 209
342 349 350 346 331 303 266 246 243 238 239 233 230 228 222 222 224 223 231 227 223 220 222 219 219 219 223 226 225 228 229 231 232 230 223 222 228 232 198 185 196 207 206
346 341 343 338 326 332 296 250 236 235 230 232 232 226 224 221 220 224 227 226 219 220 217 217 219 220 222 224 224 233 237 237 237 240 237 232 224 219 203 189 199 206 207
354 353 338 340 335 330 318 258 217 224 226 227 231 225 225 224 221 225 222 226 216 218 220 218 217 219 220 225 229 239 245 245 246 243 246 239 233 233 223 204 194 206 214
359 350 353 343 353 337 324 302 218 218 224 225 227 226 230 228 225 226 226 229 218 220 223 218 219 223 215 225 233 244 250 258 256 253 247 244 234 223 214 206 194 204 218
354 347 2 350 355 348 349 330 229 211 225 228 229 231 232 228 222 223 228 221 217 219 215 213 212 213 214 231 232 239 245 253 252 253 253 237 237 225 215 208 210 206 203
350 351 356 359 2 0 358 28 141 173 218 225 223 230 226 226 226 231 222 212 214 207 208 205 209 220 224 229 236 237 244 249 252 250 252 236 235 225 213 216 226 214 223
351 351 358 2 2 6 11 24 91 166 171 196 222 215 228 232 238 228 210 208 200 204 209 214 215 232 233 230 234 245 254 253 250 248 236 232 236 224 215 222 218 217 220
354 355 4 7 8 15 17 15 40 65 173 172 188 218 225 230 228 207 215 203 199 205 214 222 225 220 228 239 244 257 255 258 254 264 265 248 225 224 224 218 215 212 218
360 3 12 15 12 14 20 19 15 42 25 207 209 222 229 246 211 194 199 196 199 210 208 188 209 232 239 239 246 253 259 254 259 256 257 217 213 218 218 208 208 211 211
5 8 15 17 16 16 22 24 27 14 62 220 197 221 209 204 180 181 188 189 190 191 182 193 216 238 225 229 229 237 259 258 270 262 261 231 223 223 221 206 198 200 203
9 9 12 17 18 22 24 28 31 25 54 165 181 190 212 210 180 178 181 188 187 191 190 198 216 235 226 219 233 232 253 266 274 275 243 233 209 222 211 199 190 197 201
9 10 18 20 22 25 25 28 35 36 31 131 152 155 163 171 175 179 180 185 192 187 194 201 211 228 231 231 235 235 240 230 228 235 231 215 200 191 180 180 189 203 216
12 18 25 27 25 28 32 36 42 47 47 49 65 142 152 158 174 176 180 184 191 201 205 206 208 221 230 231 230 233 242 240 237 226 205 202 193 195 204 212 212 225 220
26 29 29 36 38 39 45 51 58 57 60 57 53 44 75 128 156 166 171 178 189 185 186 192 206 206 214 226 235 235 236 235 230 223 218 212 212 211 213 218 218 219 220
37 40 37 40 45 49 53 55 60 61 64 65 64 60 53 47 85 139 149 157 165 168 168 174 187 199 213 212 223 228 227 226 219 209 209 208 207 208 208 212 223 228 227
46 47 50 49 50 49 51 55 55 56 56 55 63 76 78 73 65 65 83 101 138 144 148 125 150 162 180 199 206 216 215 209 205 196 193 197 201 209 206 210 206 203 186
57 58 58 55 50 52 53 57 57 57 58 59 59 59 63 77 82 92 93 96 90 85 82 81 89 106 104 102 130 159 183 177 172 169 153 147 155 153 156 162 161 161 154
60 58 59 60 60 57 58 59 56 55 57 61 65 67 69 70 77 80 84 87 90 94 96 93 88 84 83 87 93 99 111 117 133 123 117 110 113 116 111 114 112 117 127
69 65 64 63 59 59 60 62 60 58 60 63 67 68 69 72 75 76 79 83 84 87 89 90 90 90 91 89 84 85 91 104 106 107 105 103 99 95 107 103 101 94 99
77 74 70 65 62 58 59 63 62 61 62 65 66 67 68 73 78 80 80 79 80 84 87 90 89 88 85 85 85 84 85 82 91 99 102 107 113 115 107 110 119 127 125
84 77 71 68 65 61 61 59 56 55 60 64 67 68 69 70 74 77 77 76 80 76 80 83 83 83 80 75 74 76 82 82 83 92 103 108 110 111 112 117 114 116 121
82 77 73 70 67 62 62 61 58 53 55 58 58 58 58 59 62 71 80 88 90 91 87 84 74 87 85 78 62 58 64 72 80 91 111 115 113 114 116 121 122 124 124